Tracking 17784 objects as of 23-July-2016
HD Live streaming from Space Station
objects crossing your sky now

MERIDIAN 3

Track MERIDIAN 3 now!
MERIDIAN 3 is classified as:


NORAD ID: 37212
Int'l Code: 2010-058A
Perigee: 2,046.0 km
Apogee: 38,432.4 km
Inclination: 63.0 °
Period: 720.0 minutes
Semi major axis: 26610 km
RCS: 24.3984 m2 (large)
Launch date: November 2, 2010
Source: Commonwealth of Independent States (former USSR) (CIS)
Launch site: PLESETSK MISSILE AND SPACE COMPLEX (PKMTR)

MERIDIAN 3 is a Russian military communications satellite.
Your satellite tracking list
Your tracking list is empty





NASA's NSSDC Master Catalog

Two Line Element Set (TLE):
1 37212U 10058A   16203.61083212  .00000114  00000-0  10000-3 0  9994
2 37212  62.9935 112.8653 6836915 274.2291 242.6230  2.00613911 41885
Source of the keplerian elements: AFSPC

N2YO: 846